Location: Cucq
(50.4773°N, 1.6202°E)
Time: 16:24:09
(UTC+00:00)

Cosmos 2237 Rocket - Pass Details

Date: 07 August 2020
Orbit: 836 x 849 km, 71.0° (Epoch: 18 September)

Event Time Altitude Azimuth Distance (km) Brightness Sun altitude
Rises 02:32:43 0° 321° (NW) 3,410 5.5 -15.2°
Reaches altitude 10° 02:35:43 10° 306° (NW) 2,468 4.6 -14.9°
Maximum altitude 02:39:50 21° 259° (W) 1,800 3.5 -14.5°
Enters shadow 02:41:12 19° 240° (WSW) 1,882 3.4 -14.4°
